Regional Weather Roundup
Issued by NWS Sioux Falls, SD

Home | Current Version | Previous Version | Graphics & Text | Print | Product List | Glossary On
Versions: 1 2 3 4 5 6 7 8 9 10 11 12 13 14 15 16 17 18 19 20 21 22 23 24 25 26 27 28 29 30 31 32 33 34 35 36 37 38 39 40 41 42 43 44 45 46 47 48 49 50
000
ASUS43 KFSD 050010
RWRFSD

WEATHER ROUNDUP FOR SE SOUTH DAKOTA/SW MINNESOTA/NW IOWA
NATIONAL WEATHER SERVICE SIOUX FALLS SD
700 PM CDT WED MAY 04 2016

NOTE: "FAIR" INDICATES FEW OR NO CLOUDS BELOW 12,000 FEET WITH NO
SIGNIFICANT WEATHER AND OR OBSTRUCTIONS TO VISIBILITY.


SDZ038>040-050-052>070-050100-
SOUTHEAST SOUTH DAKOTA

CITY           SKY/WX    TMP DP  RH WIND       PRES   REMARKS
CHAMBERLAIN    SUNNY     72  40  31 NW3       30.04F
6HR MIN TEMP:  66; 6HR MAX TEMP:  73;

HURON          SUNNY     71  36  27 NW9       30.01F
6HR MIN TEMP:  64; 6HR MAX TEMP:  72;

MADISON        FAIR      66  28  24 N14       30.01F
MITCHELL       SUNNY     69  36  29 NW9       30.02F
6HR MIN TEMP:  62; 6HR MAX TEMP:  70;

SIOUX FALLS    MOSUNNY   66  32  28 N13       29.99F
6HR MIN TEMP:  63; 6HR MAX TEMP:  69;

WINNER         FAIR      73  39  29 N3        30.05F
YANKTON        SUNNY     66  36  32 NW12      30.01F
$$

MNZ071-072-080-081-089-090-097-098-050100-
SOUTHWEST MINNESOTA

CITY           SKY/WX    TMP DP  RH WIND       PRES   REMARKS
FAIRMONT       SUNNY     66  30  26 N18       29.94S
JACKSON        SUNNY     64  27  24 NW15      29.97F
LUVERNE        SUNNY     66  27  22 N10G18    29.99F
MARSHALL       SUNNY     68  30  24 N17       29.97F
6HR MIN TEMP:  62; 6HR MAX TEMP:  69;

MONTEVIDEO     SUNNY     70  30  23 N12G20    29.99S
PIPESTONE      SUNNY     66  21  18 N8        29.99F
REDWOOD FALLS  SUNNY     68  24  19 N10G18    29.96S
TRACY          SUNNY     68  31  25 N14       29.98S
WINDOM         SUNNY     66  28  24 NW17      29.96F
WORTHINGTON    SUNNY     65  31  28 N20       29.98F
$$

IAZ001>003-012>014-020>022-031-032-NEZ013-014-SDZ071-050100-
NORTHWEST IOWA

CITY           SKY/WX    TMP DP  RH WIND       PRES   REMARKS
CHEROKEE       SUNNY     66  34  30 N14       29.97F
DENISON        SUNNY     66  36  32 N15G22    29.96F
ESTHERVILLE    SUNNY     65  32  29 NW16      29.95F
LE MARS        SUNNY     68  37  32 NW13G21   30.00S
ORANGE CITY    SUNNY     68  36  30 N8G18     29.99S
SHELDON        SUNNY     68  32  26 N12G20    29.97S
SIOUX CITY     SUNNY     67  40  37 NW14      30.00F
6HR MIN TEMP:  65; 6HR MAX TEMP:  69;

SPENCER        SUNNY     66  32  28 N18       29.97F
6HR MIN TEMP:  61; 6HR MAX TEMP:  67;

STORM LAKE     SUNNY     66  32  28 N17G24    29.98S
$$

ABBREVIATIONS USED IN REMARKS
   TC - TEMPERATURE IN CELSIUS
  WCI - WIND CHILL INDEX
   HX - HEAT INDEX
  VSB - VISIBILITY





USA.gov is the U.S. government's official web portal to all federal, state and local government web resources and services.